TimeEDT,TemperatureF,Dew PointF,Humidity,Sea Level PressureIn,VisibilityMPH,Wind Direction,Wind SpeedMPH,Gust SpeedMPH,PrecipitationIn,Events,Conditions,WindDirDegrees,DateUTC
12:53 AM,82.9,73.9,74,29.95,10.0,Calm,Calm,-,N/A,,Clear,0,2013-08-07 04:53:00
1:53 AM,81.0,73.9,79,29.93,10.0,Calm,Calm,-,N/A,,Clear,0,2013-08-07 05:53:00
2:53 AM,82.0,73.9,76,29.92,10.0,East,3.5,-,N/A,,Clear,100,2013-08-07 06:53:00
3:53 AM,81.0,73.9,79,29.91,10.0,Calm,Calm,-,N/A,,Clear,0,2013-08-07 07:53:00
4:35 AM,82.4,73.4,74,29.91,10.0,Calm,Calm,-,N/A,,Mostly Cloudy,0,2013-08-07 08:35:00
4:53 AM,82.0,73.9,76,29.91,10.0,North,4.6,-,N/A,,Mostly Cloudy,350,2013-08-07 08:53:00
5:10 AM,82.4,73.4,74,29.91,10.0,North,3.5,-,N/A,,Mostly Cloudy,10,2013-08-07 09:10:00
5:53 AM,81.0,73.0,77,29.91,10.0,Calm,Calm,-,N/A,,Partly Cloudy,0,2013-08-07 09:53:00
6:53 AM,84.0,75.0,74,29.92,10.0,Variable,3.5,-,N/A,,Clear,0,2013-08-07 10:53:00
7:53 AM,84.9,73.9,69,29.94,10.0,SE,4.6,-,N/A,,Clear,130,2013-08-07 11:53:00
8:53 AM,84.9,73.9,69,29.95,10.0,SSE,4.6,-,N/A,,Clear,150,2013-08-07 12:53:00
9:53 AM,87.1,75.0,67,29.96,10.0,Variable,4.6,-,N/A,,Scattered Clouds,0,2013-08-07 13:53:00
10:51 AM,87.8,75.2,66,29.96,10.0,South,5.8,-,N/A,,Mostly Cloudy,180,2013-08-07 14:51:00
10:53 AM,87.1,75.0,67,29.96,10.0,South,4.6,-,N/A,,Mostly Cloudy,180,2013-08-07 14:53:00
11:12 AM,89.6,75.2,62,29.97,10.0,South,6.9,-,N/A,,Mostly Cloudy,180,2013-08-07 15:12:00
11:53 AM,89.1,73.9,61,29.96,10.0,South,6.9,-,N/A,,Clear,170,2013-08-07 15:53:00
12:53 PM,90.0,75.0,61,29.96,10.0,SSE,8.1,-,N/A,,Clear,160,2013-08-07 16:53:00
1:53 PM,91.0,73.9,57,29.95,10.0,SSE,6.9,-,N/A,,Clear,150,2013-08-07 17:53:00
2:53 PM,89.1,75.0,63,29.94,10.0,SE,8.1,-,N/A,,Partly Cloudy,140,2013-08-07 18:53:00
3:53 PM,84.9,75.0,72,29.92,10.0,Calm,Calm,-,0.02,,Partly Cloudy,0,2013-08-07 19:53:00
4:53 PM,86.0,75.0,70,29.91,10.0,Variable,4.6,-,N/A,,Clear,0,2013-08-07 20:53:00
5:53 PM,86.0,73.0,65,29.91,10.0,East,5.8,-,N/A,,Clear,100,2013-08-07 21:53:00
6:53 PM,86.0,73.0,65,29.91,10.0,East,5.8,-,N/A,,Clear,90,2013-08-07 22:53:00
7:53 PM,84.9,73.0,67,29.91,10.0,East,5.8,-,N/A,,Clear,80,2013-08-07 23:53:00
8:53 PM,84.9,72.0,65,29.94,10.0,East,6.9,-,N/A,,Partly Cloudy,100,2013-08-08 00:53:00
9:53 PM,84.9,72.0,65,29.94,10.0,East,9.2,-,N/A,,Clear,100,2013-08-08 01:53:00
10:53 PM,84.9,72.0,65,29.96,10.0,ESE,9.2,18.4,N/A,,Clear,120,2013-08-08 02:53:00
11:53 PM,84.9,73.0,67,29.96,10.0,ESE,9.2,18.4,N/A,,Partly Cloudy,110,2013-08-08 03:53:00